STARLINK-2379, 47798

Orbit data source: Space-Track

STARLINK-2379, 47798 is a payload satellite owned by SpaceX/Seattle (US) in LEO that was launched on Thu, 11 Mar 2021 UTC via an FALCON 9 launch vehicle from the Air Force Eastern Test Range (AFETR). Payload-class satellites include a variety of spacecraft equipped with specific instruments for various scientific and technological missions. These include communications satellites like Starlink; space stations such as the ISS; scientific satellites like the Hubble; Earth observation satellites from companies like Planet Labs, Umbra, and HawkEye 360; GPS; miniature CubeSats for education and research; and military/defense satellites.

Loading next visibility...
Identifier
47798, 2021-018M
Orbit
LEO
Country
Flag of USUS
Related business
Manufacturer
SpaceX/Seattle
Mission
Operational Commercial Communications
Bus & Motor
STARLINK, Unknown motor
Mass
260 kg wet, ~248 kg dry
Launch date (UTC)
2021-03-11 (5 years ago)
Launch vehicle
FALCON 9
Launch site
Air Force Eastern Test Range (AFETR)
Object type
Payload
Rocket body
Debris
Shape & HBR
Box + 1 Pan, 10.1 m
Radar Cross Section
13.562 m², Large (>1 m²)

Expand to show TLE details & history
Last TLE update: 18 hours ago

TLE from 18 hours ago
0 STARLINK-2379
1 47798U 21018M   25292.01883162  .00001539  00000-0  12221-3 0  9995
2 47798  53.0530 147.6031 0001483  93.1305 266.9853 15.06405735255526
Epoch: 2025-10-19T00:27Z
TLE epoch observation values (Epoch: 2025-10-19T00:27:07.051Z)
Latitude
-0.0001°
Longitude
113.08213°
Altitude
548.127 km
Speed
7.589 km/s
True Right ascension
09h 50m 24s
True Declination
0° 00' 00"
Sunlit
Object was in daylight at epoch
Visualization orbit readout
Latitude
Unknown
Longitude
Unknown
Altitude
Unknown
Speed
Unknown
Apparent Right ascension
Unknown
Apparent Declination
Unknown
Sunlit
N/A
Visualization observer readout
Local Sidereal Time
13:29:56
Azimuth
Unknown
Elevation
Unknown
Doppler factor
Unknown
Orbital elements
Apogee altitude
548.492 km
Perigee altitude
546.438 km
Semi-major axis
6,925.602 km
Eccentricity
0.00015
Inclination
53.053°
RAAN
147.6031°
Arg. of periapsis
93.1305°
True anomaly
266.96833°
Mean anomaly
266.9853°
Eccentric anomaly
266.97681°
Mean motion
3.7658 °/min
Orbital period
95.6 mins
BSTAR
0.00012221
Loading maneuver chart data...
Computing Atmospheric mass density...

Documentation

Showing up to 5 results
|